Location: Burland Observatory
(39.4088°N, 105.4217°W)
Time: 02:18:58
(UTC-07:00)

Courier 1B Rocket - All Passes

Search period start: 07 December 2019 00:00
Search period end: 17 December 2019 00:00
Orbit: 920 x 1202 km, 28.2° (Epoch: 06 December)

Date Brightness Start Highest point End Pass type
(mag) Time Alt. Az. Time Alt. Az. Time Alt. Az.
07 Dec - 05:47:46 10° S 05:49:31 11° SSE 05:51:16 10° SE visible
07 Dec - 07:37:01 10° SW 07:42:04 24° SSE 07:46:56 10° ESE daylight
07 Dec - 09:29:19 10° WSW 09:34:43 29° S 09:40:00 10° ESE daylight
07 Dec - 11:22:39 10° WSW 11:27:19 22° SSW 11:31:58 10° SE daylight
08 Dec - 06:36:36 10° SSW 06:41:17 20° SSE 06:45:47 10° ESE visible
08 Dec - 08:28:27 10° SW 08:33:56 29° S 08:39:14 10° ESE daylight
08 Dec - 10:21:30 10° WSW 10:26:34 26° S 10:31:35 10° SE daylight
08 Dec - 12:16:14 10° SW 12:19:02 13° SSW 12:21:50 10° S daylight
09 Dec - 05:36:29 10° SSW 05:40:30 16° SSE 05:44:22 10° ESE visible
09 Dec - 07:27:38 10° SW 07:33:08 28° S 07:38:23 10° ESE daylight
09 Dec - 09:20:26 10° WSW 09:25:49 29° S 09:31:03 10° SE daylight
09 Dec - 11:14:22 10° WSW 11:18:21 18° SSW 11:22:18 10° SSE daylight
10 Dec - 04:37:01 10° S 04:39:42 12° SSE 04:42:20 10° SE visible
10 Dec - 06:26:55 10° SW 06:32:19 25° SSE 06:37:28 10° ESE visible
10 Dec - 08:19:24 10° WSW 08:25:02 30° S 08:30:26 10° ESE daylight
10 Dec - 10:12:55 10° WSW 10:17:38 22° SSW 10:22:16 10° SSE daylight
11 Dec - 05:26:22 10° SSW 05:31:29 22° SSE 05:36:22 10° ESE visible
11 Dec - 07:18:26 10° SW 07:24:12 30° S 07:29:43 10° ESE daylight
11 Dec - 09:11:39 10° WSW 09:16:54 26° SSW 09:21:59 10° SE daylight
11 Dec - 11:06:37 10° SW 11:09:19 13° SSW 11:12:01 10° S daylight
12 Dec - 04:26:06 10° SSW 04:30:38 18° SSE 04:35:00 10° ESE visible
12 Dec - 06:17:30 10° SW 06:23:22 29° S 06:28:55 10° ESE visible
12 Dec - 08:10:28 10° WSW 08:16:07 29° S 08:21:31 10° SE daylight
12 Dec - 10:04:34 10° WSW 10:08:39 18° SSW 10:12:39 10° SSE daylight
13 Dec - 03:26:22 10° S 03:29:47 14° SSE 03:33:07 10° SE visible
13 Dec - 05:16:41 10° SW 05:22:29 27° SSE 05:27:59 10° ESE visible
13 Dec - 07:09:20 10° WSW 07:15:17 31° S 07:20:55 10° ESE daylight
13 Dec - 09:03:00 10° WSW 09:07:56 22° SSW 09:12:42 10° SSE daylight
14 Dec - 04:16:02 10° SSW 04:21:36 23° SSE 04:26:53 10° ESE visible
14 Dec - 06:08:15 10° WSW 06:14:25 32° S 06:20:13 10° ESE visible
14 Dec - 08:01:38 10° WSW 08:07:11 27° SSW 08:12:27 10° SE daylight
14 Dec - 09:56:45 10° SW 09:59:37 13° SSW 10:02:25 10° S daylight
15 Dec - 03:15:41 10° SSW 03:20:41 19° SSE 03:25:31 10° ESE visible
15 Dec - 05:07:15 10° SW 05:13:30 31° S 05:19:24 10° ESE visible
15 Dec - 07:00:21 10° WSW 07:06:20 31° S 07:12:00 10° SE daylight
15 Dec - 08:54:35 10° WSW 08:58:55 18° SSW 09:03:06 10° SSE daylight
16 Dec - 02:15:49 10° S 02:19:47 15° SSE 02:23:40 10° ESE visible
16 Dec - 04:06:23 10° SW 04:12:34 28° SSE 04:18:26 10° ESE visible
16 Dec - 05:59:08 10° WSW 06:05:28 33° S 06:11:23 10° ESE visible
16 Dec - 07:52:55 10° WSW 07:58:10 23° SSW 08:03:11 10° SSE daylight
